• en France
  • Liste des pays
  • À 7 jours
  • Température de l'eau
  • Carte satellitaire
  • Carte météo
  • Widgets météo
  • user-avatar
    Se connecter

    Météo par heure à Linne

    Ce jour, 17 Août, Vendredi

    Heure Température Précipitation Vent Pression Humidité
    00:00 +21°C° 0 mm 2 m/s 752 mmHg 60%
    01:00 +20°C° 0 mm 2 m/s 752 mmHg 63%
    02:00 +20°C° 0 mm 2 m/s 752 mmHg 67%
    03:00 +19°C° 0 mm 2 m/s 752 mmHg 71%
    04:00 +19°C° 0 mm 2 m/s 752 mmHg 75%
    05:00 +20°C° 0 mm 2 m/s 752 mmHg 74%
    06:00 +20°C° 0 mm 3 m/s 752 mmHg 73%
    07:00 +21°C° 0 mm 3 m/s 751 mmHg 71%
    08:00 +24°C° 0 mm 3 m/s 751 mmHg 65%
    09:00 +25°C° 0 mm 3 m/s 751 mmHg 59%
    10:00 +27°C° 0 mm 4 m/s 751 mmHg 54%
    11:00 +28°C° 0 mm 3 m/s 751 mmHg 51%
    12:00 +28°C° 0 mm 3 m/s 751 mmHg 49%
    13:00 +29°C° 0 mm 3 m/s 750 mmHg 46%
    14:00 +29°C° 0 mm 2 m/s 750 mmHg 46%
    15:00 +29°C° 0 mm 2 m/s 750 mmHg 47%
    16:00 +28°C° 0 mm 2 m/s 750 mmHg 47%
    17:00 +27°C° 0 mm 2 m/s 750 mmHg 50%
    18:00 +26°C° 0 mm 2 m/s 750 mmHg 53%
    19:00 +25°C° 0 mm 2 m/s 750 mmHg 57%
    20:00 +25°C° 0 mm 2 m/s 750 mmHg 58%
    21:00 +24°C° 0 mm 2 m/s 750 mmHg 59%
    22:00 +23°C° 0 mm 2 m/s 750 mmHg 60%
    23:00 +23°C° 0 mm 2 m/s 750 mmHg 62%

    Demain, 18 Août, Samedi

    Heure Température Précipitation Vent Pression Humidité
    00:00 +23°C° 0 mm 2 m/s 750 mmHg 64%
    01:00 +21°C° 0 mm 2 m/s 750 mmHg 65%
    02:00 +21°C° 0 mm 2 m/s 750 mmHg 67%
    03:00 +21°C° 0 mm 2 m/s 751 mmHg 69%
    04:00 +21°C° 0 mm 2 m/s 751 mmHg 71%
    05:00 +22°C° 0 mm 1 m/s 751 mmHg 70%
    06:00 +23°C° 0 mm 1 m/s 751 mmHg 69%
    07:00 +24°C° 0 mm 1 m/s 751 mmHg 68%
    08:00 +25°C° 0,1 mm 2 m/s 751 mmHg 62%
    09:00 +27°C° 0,1 mm 2 m/s 752 mmHg 57%
    10:00 +28°C° 0,1 mm 2 m/s 752 mmHg 51%
    11:00 +29°C° 0,3 mm 2 m/s 752 mmHg 49%
    12:00 +29°C° 0,3 mm 2 m/s 751 mmHg 48%
    13:00 +29°C° 0,3 mm 3 m/s 751 mmHg 46%
    14:00 +29°C° 0 mm 3 m/s 751 mmHg 48%
    15:00 +28°C° 0 mm 3 m/s 751 mmHg 51%
    16:00 +28°C° 0 mm 3 m/s 751 mmHg 53%
    17:00 +27°C° 0 mm 3 m/s 752 mmHg 58%
    18:00 +25°C° 0 mm 3 m/s 752 mmHg 63%
    19:00 +24°C° 0 mm 2 m/s 752 mmHg 67%
    20:00 +23°C° 0,2 mm 2 m/s 752 mmHg 72%
    21:00 +21°C° 0,2 mm 2 m/s 752 mmHg 77%
    22:00 +21°C° 0,2 mm 2 m/s 753 mmHg 81%
    23:00 +20°C° 0,1 mm 2 m/s 753 mmHg 84%

    Après-demain, 19 Août, Dimanche

    Heure Température Précipitation Vent Pression Humidité
    00:00 +19°C° 0,1 mm 3 m/s 753 mmHg 87%
    01:00 +19°C° 0,1 mm 3 m/s 753 mmHg 90%
    02:00 +18°C° 0 mm 2 m/s 753 mmHg 90%
    03:00 +18°C° 0 mm 2 m/s 753 mmHg 91%
    04:00 +17°C° 0 mm 2 m/s 753 mmHg 92%
    05:00 +19°C° 0 mm 1 m/s 753 mmHg 86%
    06:00 +20°C° 0 mm 1 m/s 754 mmHg 79%
    07:00 +21°C° 0 mm 1 m/s 754 mmHg 73%
    08:00 +21°C° 0 mm 2 m/s 754 mmHg 64%
    09:00 +24°C° 0 mm 2 m/s 754 mmHg 56%
    10:00 +25°C° 0 mm 3 m/s 754 mmHg 47%
    11:00 +26°C° 0 mm 3 m/s 754 mmHg 44%
    12:00 +27°C° 0 mm 3 m/s 754 mmHg 42%
    13:00 +28°C° 0 mm 3 m/s 753 mmHg 39%
    14:00 +28°C° 0 mm 3 m/s 753 mmHg 40%
    15:00 +28°C° 0 mm 3 m/s 753 mmHg 40%
    16:00 +28°C° 0 mm 3 m/s 753 mmHg 40%
    17:00 +26°C° 0 mm 3 m/s 753 mmHg 46%
    18:00 +25°C° 0 mm 3 m/s 753 mmHg 51%
    19:00 +23°C° 0 mm 2 m/s 753 mmHg 57%
    20:00 +23°C° 0 mm 2 m/s 754 mmHg 61%
    21:00 +21°C° 0 mm 2 m/s 754 mmHg 66%
    22:00 +20°C° 0 mm 2 m/s 754 mmHg 70%
    23:00 +20°C° 0 mm 1 m/s 754 mmHg 73%

    20 Août, Lundi

    Heure Température Précipitation Vent Pression Humidité
    00:00 +20°C° 0 mm 1 m/s 754 mmHg 75%
    01:00 +19°C° 0 mm 1 m/s 754 mmHg 78%
    02:00 +19°C° 0 mm 1 m/s 754 mmHg 80%
    03:00 +17°C° 0 mm 0 m/s 754 mmHg 81%
    04:00 +16°C° 0 mm 0 m/s 754 mmHg 83%
    05:00 +18°C° 0 mm 0 m/s 754 mmHg 79%
    06:00 +19°C° 0 mm 0 m/s 754 mmHg 75%
    07:00 +20°C° 0 mm 0 m/s 754 mmHg 71%
    08:00 +21°C° 0 mm 0 m/s 754 mmHg 66%
    09:00 +22°C° 0 mm 0 m/s 754 mmHg 60%
    10:00 +24°C° 0 mm 0 m/s 754 mmHg 54%
    11:00 +26°C° 0 mm 1 m/s 754 mmHg 53%
    12:00 +27°C° 0 mm 1 m/s 754 mmHg 51%
    13:00 +27°C° 0 mm 1 m/s 753 mmHg 50%
    14:00 +27°C° 0 mm 1 m/s 753 mmHg 49%
    15:00 +27°C° 0 mm 1 m/s 753 mmHg 49%
    16:00 +27°C° 0 mm 1 m/s 753 mmHg 48%
    17:00 +26°C° 0 mm 1 m/s 752 mmHg 52%
    18:00 +25°C° 0 mm 1 m/s 752 mmHg 55%
    19:00 +22°C° 0 mm 0 m/s 752 mmHg 59%
    20:00 +24°C° 0 mm 1 m/s 752 mmHg 61%
    21:00 +23°C° 0 mm 1 m/s 753 mmHg 63%
    22:00 +21°C° 0 mm 2 m/s 753 mmHg 64%
    23:00 +21°C° 0 mm 2 m/s 753 mmHg 65%

    21 Août, Mardi

    Heure Température Précipitation Vent Pression Humidité
    00:00 +21°C° 0 mm 2 m/s 752 mmHg 67%
    01:00 +20°C° 0 mm 2 m/s 752 mmHg 68%
    02:00 +20°C° 0 mm 2 m/s 752 mmHg 69%
    03:00 +20°C° 0 mm 2 m/s 752 mmHg 70%
    04:00 +20°C° 0 mm 2 m/s 752 mmHg 71%
    05:00 +21°C° 0 mm 3 m/s 752 mmHg 69%
    06:00 +22°C° 0 mm 3 m/s 752 mmHg 66%
    07:00 +24°C° 0 mm 3 m/s 752 mmHg 63%
    08:00 +26°C° 0 mm 3 m/s 752 mmHg 57%
    09:00 +28°C° 0 mm 3 m/s 752 mmHg 51%
    10:00 +29°C° 0 mm 3 m/s 752 mmHg 45%
    11:00 +30°C° 0 mm 3 m/s 752 mmHg 43%
    12:00 +30°C° 0 mm 3 m/s 752 mmHg 41%
    13:00 +31°C° 0 mm 3 m/s 751 mmHg 39%
    14:00 +31°C° 0 mm 2 m/s 751 mmHg 41%
    15:00 +30°C° 0 mm 2 m/s 751 mmHg 44%
    16:00 +30°C° 0 mm 1 m/s 751 mmHg 46%
    17:00 +29°C° 0 mm 1 m/s 751 mmHg 48%
    18:00 +28°C° 0 mm 1 m/s 751 mmHg 51%
    19:00 +27°C° 0 mm 1 m/s 751 mmHg 53%
    20:00 +26°C° 0 mm 1 m/s 751 mmHg 56%
    21:00 +25°C° 0 mm 1 m/s 751 mmHg 58%
    22:00 +25°C° 0 mm 1 m/s 751 mmHg 61%
    23:00 +24°C° 0 mm 1 m/s 751 mmHg 63%

    22 Août, Mercredi

    Heure Température Précipitation Vent Pression Humidité
    00:00 +24°C° 0 mm 1 m/s 751 mmHg 65%
    01:00 +23°C° 0 mm 1 m/s 751 mmHg 68%
    02:00 +23°C° 0 mm 1 m/s 751 mmHg 68%
    03:00 +23°C° 0 mm 1 m/s 751 mmHg 67%
    04:00 +23°C° 0 mm 1 m/s 751 mmHg 67%
    05:00 +24°C° 0 mm 1 m/s 751 mmHg 67%
    06:00 +24°C° 0 mm 1 m/s 751 mmHg 66%
    07:00 +24°C° 0 mm 1 m/s 751 mmHg 65%
    08:00 +25°C° 0 mm 1 m/s 751 mmHg 62%
    09:00 +26°C° 0 mm 1 m/s 751 mmHg 59%
    10:00 +27°C° 0 mm 1 m/s 751 mmHg 55%
    11:00 +28°C° 0,2 mm 1 m/s 751 mmHg 53%
    12:00 +29°C° 0,2 mm 1 m/s 751 mmHg 50%
    13:00 +30°C° 0,2 mm 2 m/s 750 mmHg 47%
    14:00 +30°C° 0 mm 2 m/s 750 mmHg 47%
    15:00 +30°C° 0 mm 2 m/s 750 mmHg 47%
    16:00 +30°C° 0 mm 2 m/s 750 mmHg 47%
    17:00 +29°C° 0 mm 2 m/s 750 mmHg 51%
    18:00 +27°C° 0 mm 3 m/s 750 mmHg 56%
    19:00 +26°C° 0 mm 3 m/s 751 mmHg 60%
    20:00 +25°C° 0,3 mm 3 m/s 751 mmHg 66%
    21:00 +22°C° 0,3 mm 3 m/s 751 mmHg 73%
    22:00 +21°C° 0,3 mm 3 m/s 751 mmHg 79%
    23:00 +21°C° 0,2 mm 3 m/s 751 mmHg 82%
    Voir plus